Location: *
(43.6428°N, 11.5461°E)
Time: 01:39:07
(UTC+00:00)

Lacrosse 5 - Pass Details

Date: 21 October 2019
Orbit: 715 x 724 km, 57.0° (Epoch: 12 November)

Event Time Altitude Azimuth Distance (km) Brightness Sun altitude
Rises 18:18:30 0° 310° (NW) 3,123 6.1 -21.9°
Reaches altitude 10° 18:20:53 10° 308° (NW) 2,200 5.2 -22.3°
Maximum altitude 18:25:54 64° 227° (SW) 792 2.1 -23.2°
Enters shadow 18:27:30 41° 164° (SSE) 1,030 2.4 -23.5°
